period_start,C,m1,H,J0,J1,J2,J3,J4,J5,JA,JB,JC,JD,JJ,JK,JN,#
2014-11-24 00:04:36,0.10,2.69,0.00,22.14,26.67,29.82,4.76,26.97,1012.23,2031.98,2448.54,2618.02,2840.95,349.63,346.76,16.46,0000 0000 0000 0000 000000
2014-11-24 00:09:38,0.11,2.69,0.00,22.12,26.65,29.80,4.80,27.01,1012.22,2031.98,2447.72,2617.31,2840.11,350.01,347.22,16.49,0000 0000 0000 0000 000000
2014-11-24 00:14:39,0.09,2.70,0.00,22.13,26.65,29.79,4.80,26.98,1012.22,2031.98,2446.82,2616.78,2839.24,349.60,346.81,16.52,0000 0000 0000 0000 000000
2014-11-24 00:19:41,0.10,2.70,0.00,22.11,26.62,29.79,4.83,27.07,1012.22,2031.98,2445.86,2616.05,2838.48,350.12,347.35,16.55,0000 0000 0000 0000 000000
2014-11-24 00:24:42,0.12,2.70,0.00,22.09,26.62,29.75,4.82,26.90,1012.22,2031.99,2444.86,2615.30,2837.72,350.90,348.14,16.58,0000 0000 0000 0000 000000
2014-11-24 00:29:43,0.11,2.71,0.00,22.07,26.60,29.76,4.80,27.08,1012.20,2031.99,2443.87,2614.63,2836.96,349.86,347.11,16.61,0000 0000 0000 0000 000000
2014-11-24 00:34:44,0.09,2.71,0.00,22.08,26.59,29.76,4.85,27.00,1012.05,2031.99,2442.86,2613.97,2836.12,350.12,347.18,16.64,0000 0000 0000 0000 000000
2014-11-24 00:39:45,0.14,2.71,0.00,22.04,26.57,29.72,4.82,27.00,1011.86,2031.99,2441.68,2613.20,2835.34,350.42,347.57,16.67,0000 0000 0000 0000 000000
2014-11-24 00:44:47,0.09,2.72,0.00,22.05,26.57,29.70,4.76,26.90,1011.77,2031.99,2440.79,2612.53,2834.68,349.91,347.12,16.70,0000 0000 0000 0000 000000
2014-11-24 00:49:48,0.07,2.72,0.00,22.03,26.55,29.68,4.76,26.96,1011.78,2031.99,2439.78,2612.00,2834.02,350.06,347.17,16.73,0000 0000 0000 0000 000000
2014-11-24 00:54:49,0.13,2.72,0.00,22.01,26.55,29.67,4.78,27.12,1011.78,2031.99,2438.79,2611.26,2833.37,349.99,347.16,16.76,0000 0000 0000 0000 000000
2014-11-24 00:59:51,0.10,2.73,0.00,22.02,26.52,29.67,4.75,27.01,1011.76,2032.00,2437.78,2610.67,2832.72,350.29,347.67,16.79,0000 0000 0000 0000 000000
2014-11-24 01:04:52,0.08,2.73,0.00,22.00,26.52,29.65,4.72,27.00,1011.74,2032.01,2436.85,2609.99,2831.97,349.54,346.67,16.81,0000 0000 0000 0000 000000
2014-11-24 01:09:53,0.14,2.73,0.00,21.98,26.50,29.62,4.80,27.08,1011.73,2032.02,2435.77,2609.20,2831.11,349.67,346.98,16.84,0000 0000 0000 0000 000000
2014-11-24 01:14:55,0.11,2.73,0.00,21.97,26.49,29.64,4.79,27.02,1011.73,2032.03,2434.81,2608.63,2830.46,350.76,347.86,16.87,0000 0000 0000 0000 000000
2014-11-24 01:19:56,0.09,2.74,0.00,21.94,26.47,29.62,4.82,26.94,1011.72,2032.08,2433.74,2607.99,2829.82,349.82,346.94,16.90,0000 0000 0000 0000 000000
2014-11-24 01:24:57,0.16,2.74,0.00,21.94,26.46,29.60,4.79,26.95,1011.72,2032.16,2432.59,2607.21,2829.07,349.70,346.68,16.93,0000 0000 0000 0000 000000
2014-11-24 01:29:58,0.14,2.75,0.00,21.95,26.45,29.60,4.82,27.01,1011.68,2032.33,2431.86,2606.56,2828.30,350.74,347.89,16.96,0000 0000 0000 0000 000000
2014-11-24 01:34:59,0.10,2.75,0.00,21.95,26.44,29.58,4.80,26.94,1011.69,2032.54,2430.97,2605.97,2827.55,349.93,347.20,16.99,0000 0000 0000 0000 000000
2014-11-24 01:40:00,0.16,2.76,0.00,21.93,26.42,29.56,4.76,27.09,1011.73,2032.75,2429.92,2605.17,2826.98,349.73,346.95,17.02,0000 0000 0000 0000 000000
2014-11-24 01:45:01,0.11,2.76,0.00,21.92,26.41,29.56,4.76,27.01,1011.72,2032.95,2429.12,2604.79,2826.18,349.88,347.20,17.05,0000 0000 0000 0000 000000
2014-11-24 01:50:02,0.11,2.76,0.00,21.90,26.40,29.56,4.82,26.96,1011.72,2032.97,2428.09,2604.02,2825.64,349.74,347.04,17.08,0000 0000 0000 0000 000000
2014-11-24 01:55:04,0.11,2.77,0.00,21.89,26.40,29.50,4.78,26.88,1011.73,2032.98,2427.10,2603.21,2824.94,349.79,347.02,17.11,0000 0000 0000 0000 000000
2014-11-24 02:00:05,0.09,2.77,0.00,21.88,26.37,29.49,4.82,27.06,1011.74,2032.99,2426.21,2602.81,2824.11,350.06,347.21,17.14,0000 0000 0000 0000 000000
2014-11-24 02:05:06,0.11,2.77,0.00,21.89,26.37,29.50,4.77,27.01,1011.77,2032.99,2425.32,2602.06,2823.38,350.77,347.68,17.17,0000 0000 0000 0000 000000
2014-11-24 02:10:08,0.11,2.78,0.00,21.86,26.36,29.48,4.88,26.98,1011.75,2032.99,2424.45,2601.38,2822.69,350.86,348.22,17.20,0000 0000 0000 0000 000000
2014-11-24 02:15:09,0.17,2.78,0.00,21.83,26.35,29.49,4.81,27.00,1011.75,2032.99,2423.13,2600.51,2821.64,350.00,347.30,17.22,0000 0000 0000 0000 000000
2014-11-24 02:20:11,0.17,2.79,0.00,21.83,26.34,29.47,4.78,27.07,1011.74,2032.99,2421.61,2599.06,2820.13,350.38,347.89,17.25,0000 0000 0000 0000 000000
2014-11-24 02:25:12,0.13,2.79,0.00,21.82,26.32,29.45,4.79,27.02,1011.71,2032.99,2420.41,2598.32,2819.51,350.26,347.59,17.28,0000 0000 0000 0000 000000
2014-11-24 02:30:14,0.09,2.79,0.00,21.80,26.32,29.43,4.84,27.00,1011.30,2032.99,2419.18,2597.73,2819.00,349.99,347.21,17.31,0000 0000 0000 0000 000000
2014-11-24 02:35:15,0.10,2.80,0.00,21.80,26.30,29.44,4.88,27.10,1011.28,2033.00,2418.46,2597.02,2818.17,350.35,347.49,17.34,0000 0000 0000 0000 000000
2014-11-24 02:40:16,0.13,2.80,0.00,21.80,26.29,29.44,4.84,27.18,1011.29,2033.00,2417.42,2596.29,2817.24,349.95,347.24,17.37,0000 0000 0000 0000 000000
2014-11-24 02:45:17,0.10,2.80,0.00,21.79,26.27,29.43,4.77,26.98,1011.25,2033.01,2416.26,2595.68,2816.74,350.29,347.45,17.40,0000 0000 0000 0000 000000
2014-11-24 02:50:18,0.08,2.81,0.00,21.77,26.27,29.39,4.74,27.02,1011.25,2033.03,2415.55,2595.02,2816.04,349.08,346.39,17.43,0000 0000 0000 0000 000000
2014-11-24 02:55:20,0.12,2.81,0.00,21.76,26.25,29.40,4.77,26.93,1011.25,2033.04,2414.71,2594.32,2815.26,349.87,347.13,17.46,0000 0000 0000 0000 000000
2014-11-24 03:00:21,0.10,2.81,0.00,21.74,26.25,29.38,4.75,26.94,1011.25,2033.08,2413.67,2593.79,2814.66,349.75,347.04,17.49,0000 0000 0000 0000 000000
2014-11-24 03:05:22,0.14,2.82,0.00,21.72,26.24,29.35,4.80,26.92,1011.25,2033.22,2412.70,2593.04,2813.96,350.30,347.64,17.52,0000 0000 0000 0000 000000
2014-11-24 03:10:23,0.12,2.82,0.00,21.70,26.22,29.36,4.71,26.91,1011.25,2033.34,2411.61,2592.37,2813.16,349.76,347.14,17.55,0000 0000 0000 0000 000000
2014-11-24 03:15:24,0.15,2.82,0.00,21.72,26.22,29.34,4.83,27.05,1011.25,2033.29,2410.56,2591.68,2812.35,350.30,347.80,17.58,0000 0000 0000 0000 000000
2014-11-24 03:20:26,0.11,2.83,0.00,21.71,26.20,29.35,4.82,27.07,1011.25,2033.46,2409.66,2590.98,2811.66,349.96,347.38,17.61,0000 0000 0000 0000 000000
2014-11-24 03:25:27,0.13,2.83,0.00,21.70,26.20,29.32,4.78,27.10,1011.24,2033.59,2408.79,2590.17,2810.95,349.22,346.80,17.63,0000 0000 0000 0000 000000
2014-11-24 03:30:28,0.12,2.83,0.00,21.68,26.18,29.32,4.77,27.06,1011.24,2033.73,2407.84,2589.77,2810.11,349.83,347.23,17.66,0000 0000 0000 0000 000000
2014-11-24 03:35:29,0.09,2.84,0.00,21.67,26.17,29.32,4.79,27.10,1011.22,2033.76,2406.77,2589.02,2809.46,349.94,347.28,17.69,0000 0000 0000 0000 000000
2014-11-24 03:40:31,0.14,2.84,0.00,21.66,26.16,29.32,4.77,27.09,1011.20,2033.69,2405.83,2588.16,2808.74,349.76,347.26,17.72,0000 0000 0000 0000 000000
2014-11-24 03:45:32,0.12,2.85,0.00,21.67,26.15,29.30,4.83,26.96,1011.23,2033.95,2404.83,2587.76,2808.04,350.50,348.00,17.75,0000 0000 0000 0000 000000
2014-11-24 03:50:33,0.09,2.85,0.00,21.64,26.14,29.25,4.80,26.93,1011.23,2033.97,2403.97,2587.03,2807.58,350.25,347.70,17.78,0000 0000 0000 0000 000000
2014-11-24 03:55:35,0.11,2.85,0.00,21.64,26.12,29.26,4.84,26.96,1011.23,2033.98,2403.11,2586.48,2806.89,350.24,347.59,17.81,0000 0000 0000 0000 000000
2014-11-24 04:00:36,0.08,2.86,0.00,21.63,26.12,29.24,4.76,27.00,1011.24,2033.99,2402.13,2585.93,2806.09,349.70,347.07,17.84,0000 0000 0000 0000 000000
2014-11-24 04:05:37,0.13,2.86,0.00,21.63,26.10,29.25,4.84,27.05,1011.24,2033.99,2401.16,2585.11,2805.49,349.85,347.47,17.87,0000 0000 0000 0000 000000
2014-11-24 04:10:38,0.12,2.86,0.00,21.61,26.10,29.22,4.82,27.13,1011.24,2033.99,2400.28,2584.53,2804.74,349.91,347.39,17.90,0000 0000 0000 0000 000000
2014-11-24 04:15:39,0.07,2.86,0.00,21.62,26.08,29.22,4.81,27.14,1011.24,2033.99,2399.55,2583.95,2803.98,349.89,347.46,17.93,0000 0000 0000 0000 000000
2014-11-24 04:20:41,0.13,2.87,0.00,21.64,26.07,29.21,4.73,27.07,1011.23,2033.99,2398.24,2583.17,2803.27,349.18,346.70,17.96,0000 0000 0000 0000 000000
2014-11-24 04:25:42,0.11,2.87,0.00,21.62,26.07,29.17,4.72,26.89,1011.22,2034.00,2397.21,2582.54,2802.73,349.16,346.66,17.99,0000 0000 0000 0000 000000
2014-11-24 04:30:43,0.08,2.87,0.00,21.65,26.05,29.15,4.82,27.08,1011.24,2034.01,2396.28,2581.99,2802.02,349.88,347.24,18.02,0000 0000 0000 0000 000000
2014-11-24 04:35:44,0.13,2.88,0.00,21.67,26.05,29.12,4.78,27.05,1011.24,2034.01,2395.45,2581.24,2801.30,349.84,347.43,18.04,0000 0000 0000 0000 000000
2014-11-24 04:40:45,0.13,2.88,0.00,21.68,26.04,29.08,4.76,27.09,1011.24,2034.02,2394.31,2580.53,2800.55,349.82,347.21,18.07,0000 0000 0000 0000 000000
2014-11-24 04:45:46,0.05,2.88,0.00,21.70,26.03,29.08,4.80,27.02,1011.25,2034.02,2393.54,2579.98,2799.99,349.85,347.18,18.10,0000 0000 0000 0000 000000
2014-11-24 04:50:47,0.14,2.89,0.00,21.72,26.02,29.05,4.75,26.98,1011.25,2034.04,2392.40,2579.17,2799.20,349.84,347.15,18.13,0000 0000 0000 0000 000000
2014-11-24 04:55:48,0.13,2.89,0.00,21.78,26.02,29.00,4.81,26.97,1011.25,2034.05,2391.51,2578.56,2798.41,350.41,347.64,18.16,0000 0000 0000 0000 000000
2014-11-24 05:00:49,0.06,2.89,0.00,21.78,26.02,29.01,4.80,26.94,1011.25,2034.04,2390.53,2577.95,2797.80,350.06,347.30,18.19,0000 0000 0000 0000 000000
2014-11-24 05:05:51,0.15,2.90,0.00,21.79,26.02,28.99,4.84,26.94,1011.25,2034.12,2389.38,2577.11,2797.02,350.25,347.57,18.22,0000 0000 0000 0000 000000
2014-11-24 05:10:52,0.14,2.90,0.00,21.82,26.02,28.95,4.79,27.06,1011.25,2034.19,2388.37,2576.44,2796.22,350.09,347.29,18.25,0000 0000 0000 0000 000000
2014-11-24 05:15:53,0.10,2.90,0.00,21.83,26.02,28.92,4.80,27.04,1011.26,2034.21,2387.27,2575.73,2795.58,350.15,347.37,18.28,0000 0000 0000 0000 000000
2014-11-24 05:20:55,0.11,2.91,0.00,21.85,26.02,28.93,4.79,27.03,1011.25,2034.16,2386.26,2575.00,2794.75,350.34,347.60,18.31,0000 0000 0000 0000 000000
2014-11-24 05:25:56,0.11,2.91,0.00,21.89,26.03,28.89,4.85,27.07,1011.25,2034.15,2385.37,2574.19,2793.88,350.07,347.22,18.34,0000 0000 0000 0000 000000
2014-11-24 05:30:57,0.12,2.91,0.00,21.93,26.05,28.85,4.83,26.98,1011.25,2034.13,2384.47,2573.51,2793.03,350.08,347.05,18.37,0000 0000 0000 0000 000000
2014-11-24 05:35:58,0.09,2.92,0.00,21.94,26.05,28.85,4.80,26.98,1011.25,2034.10,2383.49,2572.89,2792.16,350.58,347.70,18.40,0000 0000 0000 0000 000000
2014-11-24 05:40:59,0.13,2.92,0.00,21.95,26.05,28.81,4.73,27.18,1011.25,2034.05,2382.23,2572.04,2791.41,349.86,346.81,18.42,0000 0000 0000 0000 000000
2014-11-24 05:46:00,0.12,2.93,0.00,21.97,26.06,28.86,4.83,27.02,1011.25,2034.06,2381.41,2571.28,2790.71,350.09,347.21,18.45,0000 0000 0000 0000 000000
2014-11-24 05:51:01,0.12,2.93,0.00,21.80,26.07,28.82,4.74,26.96,1011.26,2034.12,2380.41,2570.65,2790.01,350.02,347.28,18.48,0000 0000 0000 0000 000000
2014-11-24 05:56:03,0.09,2.93,0.00,21.60,26.07,28.85,4.81,26.98,1011.27,2034.07,2379.38,2569.93,2789.19,349.58,347.25,18.51,0000 0000 0000 0000 000000
2014-11-24 06:01:04,0.13,2.94,0.00,21.53,26.09,29.05,4.78,27.07,1011.25,2034.05,2378.31,2569.08,2788.32,350.06,347.62,18.54,0000 0000 0000 0000 000000
2014-11-24 06:06:05,0.12,2.94,0.00,21.50,26.10,29.15,4.75,27.08,1011.25,2034.04,2377.40,2568.39,2787.54,350.07,347.66,18.57,0000 0000 0000 0000 000000
2014-11-24 06:11:06,0.12,2.94,0.00,21.48,26.10,29.19,4.81,27.05,1011.25,2034.01,2376.28,2567.56,2786.73,350.11,347.78,18.60,0000 0000 0000 0000 000000
2014-11-24 06:16:08,0.09,2.95,0.00,21.46,26.11,29.24,4.89,27.14,1011.24,2034.01,2375.18,2566.88,2785.94,350.24,347.94,18.63,0000 0000 0000 0000 000000
2014-11-24 06:21:09,0.12,2.95,0.00,21.42,26.12,29.25,4.79,27.15,1011.24,2034.01,2374.50,2566.06,2785.07,349.85,347.55,18.66,0000 0000 0000 0000 000000
2014-11-24 06:26:10,0.14,2.95,0.00,21.40,26.12,29.30,4.79,27.17,1011.24,2034.00,2373.20,2565.34,2784.21,350.19,347.96,18.69,0000 0000 0000 0000 000000
2014-11-24 06:31:11,0.09,2.96,0.00,21.38,26.12,29.30,4.73,27.22,1011.23,2034.02,2372.40,2564.79,2783.64,349.54,347.36,18.72,0000 0000 0000 0000 000000
2014-11-24 06:36:13,0.11,2.96,0.00,21.38,26.12,29.29,4.81,27.14,1011.22,2034.01,2371.35,2564.03,2782.74,350.05,347.68,18.75,0000 0000 0000 0000 000000
2014-11-24 06:41:14,0.12,2.96,0.00,21.34,26.12,29.28,4.81,27.15,1011.21,2034.00,2370.35,2563.18,2781.98,349.95,347.76,18.78,0000 0000 0000 0000 000000
2014-11-24 06:46:15,0.11,2.97,0.00,21.33,26.12,29.31,4.76,27.19,1011.22,2034.00,2369.59,2562.67,2781.13,349.72,347.46,18.81,0000 0000 0000 0000 000000
2014-11-24 06:51:17,0.12,2.97,0.00,21.31,26.13,29.32,4.79,27.14,1011.24,2034.00,2368.20,2561.91,2780.41,350.29,347.66,18.83,0000 0000 0000 0000 000000
2014-11-24 06:56:18,0.11,2.98,0.00,21.30,26.13,29.33,4.79,27.13,1011.24,2034.00,2367.14,2561.07,2779.78,349.84,347.65,18.86,0000 0000 0000 0000 000000
2014-11-24 07:01:19,0.12,2.98,0.00,21.27,26.13,29.35,4.87,27.16,1011.24,2034.01,2366.34,2560.41,2778.94,350.37,348.24,18.89,0000 0000 0000 0000 000000
2014-11-24 07:06:21,0.10,2.98,0.00,21.28,26.13,29.32,4.88,27.07,1011.24,2034.01,2365.52,2559.81,2778.07,350.48,348.39,18.92,0000 0000 0000 0000 000000
2014-11-24 07:11:22,0.10,2.98,0.00,21.28,26.13,29.31,4.88,27.27,1011.24,2034.00,2364.80,2559.05,2777.31,350.68,348.56,18.95,0000 0000 0000 0000 000000
2014-11-24 07:16:23,0.12,2.99,0.00,21.27,26.12,29.29,4.81,27.12,1011.24,2034.01,2363.49,2558.60,2776.80,350.10,348.40,18.98,0000 0000 0000 0000 000000
2014-11-24 07:21:24,0.09,2.99,0.00,21.27,26.12,29.28,4.75,27.17,1011.24,2034.01,2362.44,2557.92,2776.03,349.41,347.38,19.01,0000 0000 0000 0000 000000
2014-11-24 07:26:26,0.13,3.00,0.00,21.27,26.12,29.28,4.89,27.20,1011.24,2034.01,2361.28,2557.07,2775.24,351.02,348.55,19.04,0000 0000 0000 0000 000000
2014-11-24 07:31:27,0.16,3.00,0.00,21.27,26.12,29.31,4.80,27.13,1011.24,2034.14,2360.16,2556.28,2774.53,350.03,347.84,19.07,0000 0000 0000 0000 000000
2014-11-24 07:36:28,0.11,3.00,0.00,21.25,26.12,29.29,4.80,27.16,1011.25,2034.11,2359.41,2555.62,2773.56,349.73,347.75,19.10,0000 0000 0000 0000 000000
2014-11-24 07:41:29,0.08,3.01,0.00,21.25,26.12,29.30,4.83,27.22,1011.26,2034.01,2358.33,2554.94,2772.77,350.17,348.03,19.13,0000 0000 0000 0000 000000
2014-11-24 07:46:31,0.12,3.01,0.00,21.25,26.12,29.30,4.84,27.14,1011.27,2034.07,2357.60,2554.18,2772.04,349.91,347.81,19.16,0000 0000 0000 0000 000000
2014-11-24 07:51:32,0.15,3.01,0.00,21.24,26.12,29.29,4.81,27.14,1011.32,2034.10,2356.47,2553.46,2771.29,350.24,348.10,19.19,0000 0000 0000 0000 000000
2014-11-24 07:56:33,0.14,3.02,0.00,21.24,26.12,29.29,4.90,27.20,1011.29,2034.26,2355.31,2552.69,2770.53,350.72,348.53,19.22,0000 0000 0000 0000 000000
2014-11-24 08:01:34,0.13,3.02,0.00,21.25,26.12,29.28,4.86,27.14,1011.29,2034.29,2354.02,2551.86,2769.53,350.00,347.98,19.25,0000 0000 0000 0000 000000
2014-11-24 08:06:36,0.21,3.03,0.00,21.23,26.12,29.32,4.78,27.25,1011.25,2034.52,2352.73,2550.87,2768.64,350.04,347.92,19.27,0000 0000 0000 0000 000000
2014-11-24 08:11:36,0.17,3.03,0.00,21.25,26.12,29.32,4.77,27.02,1011.26,2034.60,2351.43,2549.81,2767.44,349.81,347.66,19.30,0000 0000 0000 0000 000000
2014-11-24 08:16:38,6.73,3.09,0.00,21.24,26.12,29.30,4.79,27.15,1011.27,2034.34,2322.15,2529.82,2746.38,349.96,347.73,19.33,0000 0000 0000 0000 000000
2014-11-24 08:21:39,4.54,3.34,0.00,21.23,26.12,29.29,4.89,27.17,1011.27,2034.05,2258.51,2486.07,2700.91,350.46,348.39,19.36,0000 0000 0000 0000 000000
2014-11-24 08:26:40,0.25,3.37,0.13,21.24,26.12,29.30,4.78,27.12,1011.26,2034.07,2254.75,2483.41,2697.99,349.83,347.70,19.39,0000 0000 0000 0000 000000
2014-11-24 08:31:41,0.21,3.38,2.00,21.25,26.12,29.30,4.84,27.25,1011.30,2034.02,2252.97,2482.08,2696.51,350.13,348.03,19.42,0000 0000 0000 0000 000000
2014-11-24 08:36:42,0.19,3.38,2.00,21.27,26.12,29.29,4.80,27.20,1011.45,2034.03,2251.34,2480.87,2695.28,350.25,348.14,19.45,0000 0000 0000 0000 000000
2014-11-24 08:41:44,0.21,3.39,2.00,21.29,26.12,29.30,4.88,27.22,1011.46,2034.03,2249.80,2479.74,2693.99,349.90,347.84,19.48,0000 0000 0000 0000 000000
2014-11-24 08:46:45,0.19,3.39,2.00,21.29,26.12,29.31,4.87,27.13,1011.64,2034.05,2248.44,2478.62,2692.92,350.71,348.67,19.51,0000 0000 0000 0000 000000
2014-11-24 08:51:46,0.19,3.40,2.00,21.28,26.12,29.31,4.85,27.23,1011.52,2034.08,2246.98,2477.54,2691.79,350.09,347.96,19.54,0000 0000 0000 0000 000000
2014-11-24 08:56:48,0.20,3.40,1.80,21.28,26.12,29.32,4.84,27.13,1011.67,2034.12,2245.54,2476.48,2690.63,350.70,348.54,19.57,0000 0000 0000 0000 000000
2014-11-24 09:01:49,0.18,3.41,0.00,21.29,26.12,29.31,4.83,27.07,1011.64,2034.21,2244.11,2475.41,2689.53,350.29,348.43,19.60,0000 0000 0000 0000 000000
2014-11-24 09:06:50,0.18,3.42,0.00,21.29,26.12,29.31,4.88,27.21,1011.72,2034.15,2242.68,2474.25,2688.30,350.28,348.10,19.63,0000 0000 0000 0000 000000
2014-11-24 09:11:52,0.17,3.42,0.00,21.30,26.12,29.30,4.79,27.17,1011.68,2034.13,2241.25,2473.12,2687.10,349.97,347.97,19.65,0000 0000 0000 0000 000000
2014-11-24 09:16:53,0.22,3.43,0.00,21.31,26.13,29.32,4.81,27.23,1011.62,2034.26,2239.89,2472.07,2685.93,350.20,347.81,19.68,0000 0000 0000 0000 000000
2014-11-24 09:21:54,0.16,3.43,0.00,21.33,26.14,29.31,4.83,27.31,1011.69,2034.13,2238.66,2470.95,2684.66,350.18,348.15,19.71,0000 0000 0000 0000 000000
2014-11-24 09:26:56,0.22,3.44,0.00,21.33,26.15,29.33,4.89,27.26,1011.69,2034.30,2237.35,2469.83,2683.60,350.10,348.08,19.74,0000 0000 0000 0000 000000
2014-11-24 09:31:57,0.16,3.44,0.00,21.35,26.15,29.33,4.85,27.24,1011.72,2034.23,2235.95,2468.78,2682.36,349.99,347.85,19.77,0000 0000 0000 0000 000000
2014-11-24 09:36:58,0.20,3.45,0.00,21.35,26.15,29.31,4.83,27.27,1011.72,2034.13,2234.48,2467.64,2681.09,350.03,347.85,19.80,0000 0000 0000 0000 000000
2014-11-24 09:42:00,0.19,3.45,0.00,21.35,26.15,29.34,4.83,27.26,1011.73,2034.18,2232.94,2466.47,2679.92,350.24,348.19,19.83,0000 0000 0000 0000 000000
2014-11-24 09:47:01,0.22,3.46,0.00,21.36,26.15,29.34,4.76,27.20,1011.72,2034.26,2231.62,2465.33,2678.68,349.40,347.25,19.86,0000 0000 0000 0000 000000
2014-11-24 09:52:02,0.13,3.47,0.00,21.40,26.15,29.35,4.85,27.33,1011.70,2034.16,2230.28,2464.33,2677.51,350.10,347.86,19.89,0000 0000 0000 0000 000000
2014-11-24 09:57:04,0.17,3.47,0.00,21.41,26.17,29.30,4.84,27.29,1011.69,2034.12,2228.86,2463.23,2676.29,350.17,347.97,19.92,0000 0000 0000 0000 000000
2014-11-24 10:02:05,0.19,3.48,0.00,21.41,26.17,29.36,4.75,27.18,1011.72,2034.06,2227.50,2462.02,2674.95,349.43,347.28,19.95,0000 0000 0000 0000 000000
2014-11-24 10:07:06,0.18,3.48,0.00,21.42,26.17,29.35,4.89,27.23,1011.73,2034.08,2226.24,2461.00,2673.89,350.44,348.26,19.98,0000 0000 0000 0000 000000
2014-11-24 10:12:07,0.18,3.49,0.00,21.43,26.17,29.34,4.76,27.19,1011.73,2034.04,2224.72,2459.92,2672.71,350.03,347.84,20.01,0000 0000 0000 0000 000000
2014-11-24 10:17:09,0.16,3.49,0.00,21.44,26.19,29.33,4.83,27.23,1011.73,2034.01,2223.64,2458.93,2671.57,349.98,347.83,20.04,0000 0000 0000 0000 000000
2014-11-24 10:22:10,0.17,3.50,0.00,21.47,26.20,29.36,4.81,27.15,1011.73,2034.05,2222.37,2457.98,2670.54,350.03,347.85,20.07,0000 0000 0000 0000 000000
2014-11-24 10:27:11,0.16,3.50,0.00,21.47,26.20,29.35,4.86,27.27,1011.73,2034.02,2221.06,2456.97,2669.46,350.22,347.99,20.09,0000 0000 0000 0000 000000
2014-11-24 10:32:13,0.17,3.51,0.00,21.49,26.20,29.34,4.78,27.17,1011.72,2034.01,2219.77,2455.96,2668.37,350.03,348.01,20.12,0000 0000 0000 0000 000000
2014-11-24 10:37:14,0.18,3.51,0.00,21.51,26.22,29.35,4.82,27.26,1011.71,2034.00,2218.39,2454.90,2667.26,349.94,347.77,20.15,0000 0000 0000 0000 000000
2014-11-24 10:42:15,0.15,3.52,0.00,21.52,26.22,29.36,4.80,27.21,1011.72,2034.00,2217.08,2453.96,2666.16,350.51,348.22,20.18,0000 0000 0000 0000 000000
2014-11-24 10:47:16,0.17,3.52,0.00,21.55,26.22,29.35,4.80,27.21,1011.73,2034.00,2215.93,2453.01,2665.23,350.40,348.14,20.21,0000 0000 0000 0000 000000
2014-11-24 10:52:18,0.17,3.53,0.00,21.57,26.24,29.37,4.84,27.32,1011.72,2034.00,2214.63,2452.03,2664.13,349.91,347.75,20.24,0000 0000 0000 0000 000000
2014-11-24 10:57:19,0.16,3.53,0.00,21.59,26.25,29.38,4.83,27.22,1011.69,2034.00,2213.45,2451.10,2663.07,350.38,348.03,20.27,0000 0000 0000 0000 000000
2014-11-24 11:02:20,0.16,3.54,0.00,21.60,26.25,29.38,4.81,27.17,1011.70,2034.00,2212.29,2450.17,2662.09,349.81,347.44,20.30,0000 0000 0000 0000 000000
2014-11-24 11:07:21,0.16,3.54,0.00,21.60,26.27,29.40,4.77,27.19,1011.70,2034.00,2211.13,2449.28,2661.15,349.73,347.40,20.33,0000 0000 0000 0000 000000
2014-11-24 11:12:22,0.16,3.55,0.00,21.62,26.27,29.39,4.87,27.27,1011.67,2034.00,2209.94,2448.33,2660.13,349.96,347.65,20.36,0000 0000 0000 0000 000000
2014-11-24 11:17:24,0.17,3.55,0.00,21.62,26.28,29.41,4.84,27.21,1011.65,2034.00,2208.66,2447.40,2659.07,350.63,348.24,20.39,0000 0000 0000 0000 000000
2014-11-24 11:22:25,0.16,3.56,0.00,21.65,26.30,29.41,4.87,27.08,1011.48,2033.99,2207.50,2446.46,2658.06,350.36,347.87,20.42,0000 0000 0000 0000 000000
2014-11-24 11:27:26,0.17,3.56,0.00,21.67,26.30,29.41,4.78,27.27,1011.59,2033.98,2206.21,2445.47,2657.00,349.89,347.33,20.45,0000 0000 0000 0000 000000
2014-11-24 11:32:28,0.14,3.57,0.00,21.69,26.32,29.42,4.75,27.09,1011.37,2033.99,2205.16,2444.67,2656.08,349.71,346.84,20.48,0000 0000 0000 0000 000000
2014-11-24 11:37:29,0.15,3.57,0.00,21.68,26.32,29.43,4.76,27.19,1011.31,2033.99,2203.97,2443.80,2655.16,349.56,346.98,20.50,0000 0000 0000 0000 000000
2014-11-24 11:42:30,0.12,3.58,0.00,21.70,26.34,29.43,4.82,27.23,1011.30,2033.98,2202.93,2442.96,2654.13,350.29,347.72,20.53,0000 0000 0000 0000 000000
2014-11-24 11:47:32,0.16,3.58,0.00,21.72,26.35,29.45,4.79,27.27,1011.30,2033.98,2201.92,2442.13,2653.32,349.59,347.02,20.56,0000 0000 0000 0000 000000
2014-11-24 11:52:33,0.15,3.58,0.00,21.75,26.36,29.48,4.70,27.15,1011.28,2033.92,2200.80,2441.19,2652.30,349.68,347.07,20.59,0000 0000 0000 0000 000000
2014-11-24 11:57:35,0.17,3.59,0.00,21.76,26.37,29.48,4.73,27.12,1011.28,2033.89,2199.67,2440.37,2651.38,349.56,346.93,20.62,0000 0000 0000 0000 000000
2014-11-24 12:02:36,0.15,3.59,0.00,21.79,26.38,29.46,4.87,27.21,1011.32,2033.93,2198.63,2439.60,2650.50,350.13,347.33,20.65,0000 0000 0000 0000 000000
2014-11-24 12:07:37,0.11,3.60,0.00,21.82,26.40,29.50,4.88,27.38,1011.30,2033.80,2197.54,2438.69,2649.56,349.97,347.40,20.68,0000 0000 0000 0000 000000
2014-11-24 12:12:38,0.05,3.60,0.00,21.84,26.41,29.50,4.80,27.27,1011.32,2033.35,2196.37,2437.85,2648.56,349.98,347.14,20.71,0000 0000 0000 0000 000000
2014-11-24 12:17:39,0.13,3.60,0.00,21.82,26.42,29.50,4.78,27.26,1011.34,2033.28,2195.28,2436.93,2647.65,349.79,347.06,20.74,0000 0000 0000 0000 000000
2014-11-24 12:22:40,0.13,3.61,0.00,21.84,26.43,29.52,4.77,27.28,1011.39,2033.09,2194.08,2435.99,2646.66,349.86,347.15,20.77,0000 0000 0000 0000 000000
2014-11-24 12:27:42,0.15,3.61,0.00,21.87,26.45,29.52,4.85,27.32,1011.30,2033.04,2192.93,2435.08,2645.63,350.13,347.36,20.80,0000 0000 0000 0000 000000
2014-11-24 12:32:43,0.18,3.62,0.00,21.90,26.46,29.56,4.79,27.24,1011.31,2033.04,2191.80,2434.21,2644.64,349.72,346.81,20.83,0000 0000 0000 0000 000000
2014-11-24 12:37:44,0.16,3.62,0.00,21.92,26.47,29.58,4.86,27.19,1011.37,2033.03,2190.63,2433.27,2643.64,350.23,347.38,20.86,0000 0000 0000 0000 000000
2014-11-24 12:42:46,0.16,3.62,0.00,21.94,26.49,29.56,4.85,27.18,1011.45,2033.01,2189.50,2432.34,2642.63,350.19,347.35,20.89,0000 0000 0000 0000 000000
2014-11-24 12:47:47,0.15,3.63,0.00,21.95,26.50,29.54,4.81,27.18,1011.46,2033.00,2188.35,2431.50,2641.66,350.35,347.35,20.91,0000 0000 0000 0000 000000
2014-11-24 12:52:48,0.12,3.63,0.00,21.96,26.52,29.58,4.77,27.21,1011.64,2033.00,2187.27,2430.72,2640.72,350.10,347.42,20.94,0000 0000 0000 0000 000000
2014-11-24 12:57:49,0.16,3.64,0.00,21.98,26.53,29.62,4.79,27.08,1011.63,2033.00,2186.17,2429.79,2639.75,350.82,348.00,20.97,0000 0000 0000 0000 000000
2014-11-24 13:02:50,0.21,3.64,0.00,22.01,26.55,29.63,4.81,27.24,1011.63,2033.00,2184.78,2428.70,2638.53,350.04,347.17,21.00,0000 0000 0000 0000 000000